Location: Wien
(48.2082°N, 16.3738°E)
Time: 10:33:25
(UTC+02:00)

Transit 4A - Pass Details

Date: 25 February 2024
Orbit: 871 x 971 km, 66.8° (Epoch: 24 April)

Event Time Altitude Azimuth Distance (km) Brightness Sun altitude
Exits shadow 01:34:16 13° 38° (NE) 2,372 10.5 -47.1°
Drops below altitude 10° 01:34:51 10° 38° (NE) 2,588 10.8 -47.0°
Sets 01:37:22 0° 37° (NE) 3,526 11.6 -46.8°
